アフリカーノ彗星

C/2018 V4 ( Africano )

English version
Home page
Updated on March 24, 2019

---------------------------------------------------------------------

・ プロフィール

発見日 2018年11月4日
発見光度 19.7等
発見者 Brian M. Africano (Mount Lemmon)

・ 写真集

・ 軌道要素

Epoch 2019 Mar. 18.0 TT = JDT 2458560.5
T 2019 Mar. 1.84297 TT                                  MPCW
q   3.1992986            (2000.0)            P               Q
z  +0.0041581      Peri.    0.04906     +0.20125035     -0.35069085
 +/-0.0003134      Node    78.37236     +0.89839192     -0.30602783
e   0.9866969      Incl.   69.03102     +0.39037195     +0.88507790
From 117 observations 2018 Oct. 23-Nov. 29, mean residual 0".6.

・ 光度変化

        m1 = 12.2 + 5 logΔ + 10.0 log r

---------------------------------------------------------------------

軌道要素はM.P.E.C. 2018-X13に掲載されたものです。
光度グラフはComet for Windowsで作成したものです。

---------------------------------------------------------------------

Copyright(C) Seiichi Yoshida (comet@aerith.net). All rights reserved.